Preston, Minnesota, United States (55965)
Lat: 43.67N, Lon: 92.08W
Wx Zone: MNZ095
Local Info
Past Weather Observations for Today

NOTE: This archive is for the closest National Weather Service station to Preston. Information may differ from the station used for current weather conditions.

Click here for Long-term Archive

Time Weather Temperature Dewpoint Humidity Pressure Winds Precip Visibility
12:53
Partly Cloudy
79°F / 26°C 64°F / 18°C 61% 30.01 in
(1016 mb)
S 10.4 mph
(S 17 kph)
- 10SM
12:34
Partly Cloudy
79°F / 26°C 66°F / 19°C 65% 30.04 in
(1017 mb)
SSE 9.2 mph
(SSE 15 kph)
- 10SM
12:14
Partly Cloudy
77°F / 25°C 64°F / 18°C 65% 30.04 in
(1017 mb)
SSE 6.9 mph
(SSE 11 kph)
- 10SM
11:53
Clear
79°F / 26°C 64°F / 18°C 61% 30.04 in
(1017 mb)
S 9.2 mph
(S 15 kph)
- 10SM
11:33
Partly Cloudy
79°F / 26°C 66°F / 19°C 65% 30.04 in
(1017 mb)
S 9.2 mph
(S 15 kph)
- 10SM
11:13
Partly Cloudy
77°F / 25°C 66°F / 19°C 69% 30.04 in
(1017 mb)
S 6.9 mph
(S 11 kph)
- 10SM
10:53
Clear
79°F / 26°C 64°F / 18°C 61% 30.04 in
(1017 mb)
S 6.9 mph
(S 11 kph)
- 10SM
10:34
Clear
79°F / 26°C 64°F / 18°C 61% 30.04 in
(1017 mb)
S 6.9 mph
(S 11 kph)
- 10SM
10:13
Clear
79°F / 26°C 64°F / 18°C 61% 30.01 in
(1016 mb)
S 5.8 mph
(S 9 kph)
- 10SM
09:53
Clear
79°F / 26°C 64°F / 18°C 61% 30.01 in
(1016 mb)
S 5.8 mph
(S 9 kph)
- 10SM
09:34
Clear
77°F / 25°C 64°F / 18°C 65% 30.04 in
(1017 mb)
S 4.6 mph
(S 7 kph)
- 10SM
09:13
Clear
77°F / 25°C 66°F / 19°C 69% 30.04 in
(1017 mb)
SW 5.8 mph
(SW 9 kph)
- 10SM
08:13
Clear
75°F / 24°C 66°F / 19°C 74% 30.06 in
(1018 mb)
SSW 4.6 mph
(SSW 7 kph)
- 10SM
07:53
Clear
73°F / 23°C 66°F / 19°C 78% 30.06 in
(1018 mb)
SSW 5.8 mph
(SSW 9 kph)
- 10SM
07:34
Clear
72°F / 22°C 66°F / 19°C 83% 30.06 in
(1018 mb)
SW 4.6 mph
(SW 7 kph)
- 10SM
07:13
Clear
72°F / 22°C 64°F / 18°C 78% 30.06 in
(1018 mb)
SW 6.9 mph
(SW 11 kph)
- 10SM
06:53
Clear
70°F / 21°C 64°F / 18°C 83% 30.04 in
(1017 mb)
S 3.5 mph
(S 6 kph)
- 10SM
06:33
Clear
68°F / 20°C 64°F / 18°C 88% 30.04 in
(1017 mb)
SSE 3.5 mph
(SSE 6 kph)
- 7SM
06:13
Clear
66°F / 19°C 64°F / 18°C 94% 30.04 in
(1017 mb)
SW 3.5 mph
(SW 6 kph)
- 10SM
05:54
Clear
66°F / 19°C 64°F / 18°C 94% 30.04 in
(1017 mb)
S 3.5 mph
(S 6 kph)
- 7SM
05:33
Clear
Fog And Mist
64°F / 18°C 63°F / 17°C 94% 30.04 in
(1017 mb)
S 3.5 mph
(S 6 kph)
- 5SM
05:13
Clear
Fog And Mist
64°F / 18°C 63°F / 17°C 94% 30.04 in
(1017 mb)
S 4.6 mph
(S 7 kph)
- 4SM
04:53
Clear
Fog And Mist
64°F / 18°C 63°F / 17°C 94% 30.04 in
(1017 mb)
SSE 4.6 mph
(SSE 7 kph)
- 4SM
04:33
Clear
64°F / 18°C 63°F / 17°C 94% 30.04 in
(1017 mb)
SSE 3.5 mph
(SSE 6 kph)
- 7SM
04:13
Clear
64°F / 18°C 63°F / 17°C 94% 30.04 in
(1017 mb)
Calm - 7SM
03:53
Clear
66°F / 19°C 64°F / 18°C 94% 30.04 in
(1017 mb)
Calm - 7SM
03:34
Clear
66°F / 19°C 63°F / 17°C 88% 30.04 in
(1017 mb)
Calm - 10SM
03:13
Clear
66°F / 19°C 63°F / 17°C 88% 30.04 in
(1017 mb)
Calm - 7SM
02:53
Clear
68°F / 20°C 64°F / 18°C 88% 30.04 in
(1017 mb)
Calm - 10SM
02:34
Clear
66°F / 19°C 64°F / 18°C 94% 30.04 in
(1017 mb)
W 3.5 mph
(W 6 kph)
- 10SM
02:13
Clear
66°F / 19°C 64°F / 18°C 94% 30.04 in
(1017 mb)
Calm - 10SM
01:53
Clear
68°F / 20°C 64°F / 18°C 88% 30.04 in
(1017 mb)
SSW 3.5 mph
(SSW 6 kph)
- 10SM
01:34
Clear
68°F / 20°C 64°F / 18°C 88% 30.01 in
(1016 mb)
SW 5.8 mph
(SW 9 kph)
- 10SM
01:13
Clear
68°F / 20°C 64°F / 18°C 88% 30.01 in
(1016 mb)
SSW 5.8 mph
(SSW 9 kph)
- 10SM
00:54
Clear
68°F / 20°C 64°F / 18°C 88% 30.04 in
(1017 mb)
SW 5.8 mph
(SW 9 kph)
- 10SM
00:34
Partly Cloudy
68°F / 20°C 64°F / 18°C 88% 30.04 in
(1017 mb)
SSE 4.6 mph
(SSE 7 kph)
- 10SM
00:13
Mostly Cloudy
70°F / 21°C 66°F / 19°C 88% 30.04 in
(1017 mb)
SW 4.6 mph
(SW 7 kph)
- 10SM
Time Weather Temperature Dewpoint Humidity Pressure Winds Precip Visibility


Weather for websites

WeatherForYou.com, LLC is not responsible for any damages or problems caused by this service. Current weather conditions are obtained from the closest station including government and personal stations which may have varying degrees of accuracy. Weather forecasts are derived from the NOAA NDFD. Like all things, this site belongs to Jesus Christ... He just trusts us to maintain it. If you have any questions or comments email webmaster@weatherforyou.com

Copyright © 2016, WeatherForYou.com LLC. All rights reserved.